Regional Weather Roundup
Issued by NWS

Home | Current Version | Previous Version | Graphics & Text | Print | Product List | Glossary On
Versions: 1 2 3 4 5 6 7 8 9 10 11 12 13 14 15 16 17 18 19 20 21 22 23 24 25 26 27 28 29 30 31 32 33 34 35 36 37 38 39 40 41 42 43 44 45 46 47 48 49 50
000
ASUS43 KLOT 291808
RWRIL

ILLINOIS REGIONAL WEATHER ROUNDUP
NATIONAL WEATHER SERVICE CHICAGO/ROMEOVILLE IL
100 PM CDT WED MAR 29 2017

NOTE: "FAIR" INDICATES FEW OR NO CLOUDS BELOW 12,000 FEET WITH NO
SIGNIFICANT WEATHER AND/OR OBSTRUCTIONS TO VISIBILITY.

* THESE STATIONS ARE NOT UNDER NWS QUALITY CONTROL. THEY ALSO MAY NOT
  REPORT WEATHER SUCH AS PRECIPITATION OR FOG.

ILZ001-002-007-009-015-016-024-291900-
NORTHWEST ILLINOIS

CITY           SKY/WX    TMP DP  RH WIND       PRES   REMARKS
MOLINE         CLOUDY    46  42  86 E18       30.09F
6HR MIN TEMP:  42; 6HR MAX TEMP:  46; 6HR PCP:  0.10;

STERLING*      CLOUDY    47  41  80 E16       30.17S
SAVANNA*       DRIZZLE   45  36  71 E13G18    30.17F
$$

ILZ003-004-008-010-011-017-018-291900-
NORTH CENTRAL ILLINOIS

CITY           SKY/WX    TMP DP  RH WIND       PRES   REMARKS
ROCKFORD       LGT RAIN  47  34  60 E12       30.24S
6HR MIN TEMP:  36; 6HR MAX TEMP:  48; 6HR PCP: TRACE;

FREEPORT*      CLOUDY    46  35  67 E12       30.23R
ROCHELLE*      CLOUDY    47  37  66 E12       30.21F
DE KALB*       CLOUDY    47  36  64 E12       30.20F
PERU*          CLOUDY    49  37  61 E9        30.17F
$$

ILZ005-006-012>014-019>023-291900-
NORTHEAST ILLINOIS

CITY           SKY/WX    TMP DP  RH WIND       PRES   REMARKS
CHICAGO-OHARE  CLOUDY    47  35  63 NE10      30.23F
6HR MIN TEMP:  35; 6HR MAX TEMP:  48;

CHICAGO-MIDWAY CLOUDY    47  36  65 NE17G24   30.23F
6HR MIN TEMP:  37; 6HR MAX TEMP:  48;

AURORA         CLOUDY    52  35  52 NE14      30.19F
6HR MIN TEMP:  37; 6HR MAX TEMP:  53;

LANSING*       MOSUNNY   50  41  70 N10       30.22F
JOLIET*        CLOUDY    56  36  47 E12       30.19F
WAUKEGAN       CLOUDY    42  36  79 NE10      30.26F
6HR MIN TEMP:  32; 6HR MAX TEMP:  43;

DUPAGE AIRPORT CLOUDY    48  37  65 E12       30.20F
6HR MIN TEMP:  35; 6HR MAX TEMP:  50;

KANKAKEE*      MOSUNNY   55  36  48 E22       30.17F
WHEELING       CLOUDY    43  36  76 E8        30.26S
6HR MIN TEMP:  33; 6HR MAX TEMP:  43;

MORRIS*        CLOUDY    54  35  47 E15       30.18F
ROMEOVILLE*    CLOUDY    51  40  63 E16       30.19F
NORTHERLY ISL    N/A     41  37  86 N10         N/A
$$

LMZ740>746-291900-
SOUTHERN LAKE MICHIGAN

STATION/POSITION SKY/WX   TEMP    WIND        PRES    VSBY  WAVE
                          AIR SEA DIR/SP/G                  HT/PER
                          (F)     (DEG/KT/KT) (MB)    (MI)  (FT/S)
HARRISON CRIB              39      30/ 13/ 14   N/A
BURNHAM HARBOR             41      10/ 10/ 13   N/A
CALUMET HARBOR             40     360/ 12/ 15 1023.6S
BURNS HARBOR               42      50/  8/ 10 1024.4S
MICHIGAN CITY              39      20/ 11/ 12   N/A
$$

ILZ025>027-034>036-040-047-049-050-058-095>099-291900-
WEST-CENTRAL ILLINOIS

CITY           SKY/WX    TMP DP  RH WIND       PRES   REMARKS
QUINCY         CLOUDY    50  47  89 E18G29    29.96F
GALESBURG*     LGT RAIN  46  44  93 E13G21    30.08R
MACOMB*        CLOUDY    48  47  97 E21       30.06F
JACKSONVILLE*  CLOUDY    50  48  93 E25       30.04F
PITTSFIELD*    CLOUDY    51  49  93 E18G25    30.00F FOG
$$

ILZ028>032-037-038-041>044-048-051>054-059>061-291900-
CENTRAL ILLINOIS

CITY           SKY/WX    TMP DP  RH WIND       PRES   REMARKS
PONTIAC        CLOUDY    53  41  63 E17       30.17F
BLOOMINGTON    CLOUDY    54  40  59 E14       30.14F
DECATUR        CLOUDY    50  45  83 E10       30.12R
PEORIA         RAIN      48  45  89 E7        30.11F FOG
6HR MIN TEMP:  44; 6HR MAX TEMP:  49; 6HR PCP:  0.14;

LACON*         CLOUDY    51  40  67 E12G17    30.14F
LINCOLN*       RAIN      49  47  90 E8        30.12F
SPRINGFIELD    LGT RAIN  51  48  89 E14       30.09F FOG
6HR MIN TEMP:  48; 6HR MAX TEMP:  53; 6HR PCP:  0.09;

TAYLORVILLE    CLOUDY    50  48  93 NE12      30.10F
$$

ILZ033-039-045-046-055>057-062-063-291900-
EAST-CENTRAL ILLINOIS

CITY           SKY/WX    TMP DP  RH WIND       PRES   REMARKS
CHAMPAIGN      CLOUDY    58  40  51 E18       30.10F
RANTOUL*       MOSUNNY   60  38  43 E17G26    30.11F
MATTOON        CLOUDY    54  47  77 SE12      30.07F
PARIS*         CLOUDY    58  46  66 E12       30.11F
$$

ILZ079-100>102-291900-
SOUTHWEST ILLINOIS

CITY           SKY/WX    TMP DP  RH WIND       PRES   REMARKS
ALTON          CLOUDY    54  50  87 NE14      30.02F
BELLEVILLE     CLOUDY    59  54  83 NE10      29.98F
CAHOKIA*       CLOUDY    59  51  75 NE10      29.99F
SPARTA*        CLOUDY    60  54  79 SE13      30.00F
$$

ILZ064>066-069>071-074>076-080>082-084>086-088>090-092>094-291900-
SOUTH-CENTRAL ILLINOIS

CITY           SKY/WX    TMP DP  RH WIND       PRES   REMARKS
CARBONDALE     CLOUDY    63  55  75 SE10      29.99F
6HR MIN TEMP:  49; 6HR MAX TEMP:  65; 6HR PCP: TRACE;

CAIRO*         PTSUNNY   67  57  70 SE13      29.98F
EFFINGHAM*     CLOUDY    58  51  78 E8G16     30.09R
MARION         PTSUNNY   70  55  60 E9        30.00F
MT. VERNON     PTSUNNY   65  54  67 E14       30.01F
CENTRALIA*     CLOUDY    63  54  71 E14G21    30.01F
SALEM*         CLOUDY    63  51  65 E10       30.03F
METROPOLIS*    PTSUNNY   69  56  62 SE10      30.00F
$$

ILZ067-068-072-073-078-083-087-091-291900-
SOUTHEAST ILLINOIS

CITY           SKY/WX    TMP DP  RH WIND       PRES   REMARKS
LAWRENCEVILLE  CLOUDY    60  50  69 E21       30.05F
FLORA*         CLOUDY    64  52  65 SE14      30.06R
FAIRFIELD*     CLOUDY    66  54  65 E8        30.04F
HARRISBURG*    CLOUDY    65  56  73 E12       30.02F
ROBINSON*      CLOUDY    58  49  73 E18       30.09F
CARMI*         PTSUNNY   65  55  68 SE13G18   30.04S
$$

ABBREVIATIONS USED IN REMARKS
   TC - TEMPERATURE IN CELSIUS
  WCI - WIND CHILL INDEX
   HX - HEAT INDEX
  VSB - VISIBILITY
$$





USA.gov is the U.S. government's official web portal to all federal, state and local government web resources and services.